TimeMST,TemperatureF,Dew PointF,Humidity,Sea Level PressureIn,VisibilityMPH,Wind Direction,Wind SpeedMPH,Gust SpeedMPH,PrecipitationIn,Events,Conditions,WindDirDegrees,DateUTC
12:51 AM,75.0,66.9,76,29.75,10.0,SW,5.8,-,N/A,,Mostly Cloudy,230,2013-09-10 07:51:00
1:51 AM,75.0,66.9,76,29.74,10.0,West,5.8,-,N/A,,Mostly Cloudy,260,2013-09-10 08:51:00
2:51 AM,75.0,66.0,73,29.73,10.0,Calm,Calm,-,N/A,,Mostly Cloudy,0,2013-09-10 09:51:00
3:51 AM,75.9,66.0,71,29.73,10.0,Calm,Calm,-,N/A,,Mostly Cloudy,0,2013-09-10 10:51:00
4:51 AM,75.0,66.9,76,29.74,10.0,Calm,Calm,-,N/A,,Mostly Cloudy,0,2013-09-10 11:51:00
5:51 AM,75.0,69.1,82,29.75,10.0,SE,6.9,-,N/A,,Mostly Cloudy,140,2013-09-10 12:51:00
6:51 AM,75.0,69.1,82,29.77,10.0,SE,6.9,-,N/A,,Mostly Cloudy,140,2013-09-10 13:51:00
7:51 AM,75.9,66.9,74,29.78,10.0,SE,9.2,-,N/A,,Mostly Cloudy,140,2013-09-10 14:51:00
8:51 AM,79.0,66.9,66,29.78,10.0,SSW,4.6,-,N/A,,Scattered Clouds,200,2013-09-10 15:51:00
9:51 AM,82.0,66.0,58,29.79,10.0,SSE,12.7,-,N/A,,Scattered Clouds,150,2013-09-10 16:51:00
10:51 AM,82.9,66.0,56,29.79,10.0,South,8.1,-,N/A,,Mostly Cloudy,190,2013-09-10 17:51:00
11:51 AM,84.9,66.0,53,29.78,10.0,South,13.8,17.3,N/A,,Mostly Cloudy,190,2013-09-10 18:51:00
12:51 PM,84.9,64.9,51,29.77,10.0,South,16.1,-,N/A,,Mostly Cloudy,170,2013-09-10 19:51:00
1:48 PM,78.8,66.2,65,29.82,10.0,West,25.3,31.1,N/A,,Mostly Cloudy,260,2013-09-10 20:48:00
1:51 PM,78.1,68.0,71,29.78,10.0,West,25.3,31.1,0.00,Rain,Light Rain,260,2013-09-10 20:51:00
2:51 PM,82.0,62.1,51,29.78,10.0,WSW,12.7,-,0.00,,Mostly Cloudy,250,2013-09-10 21:51:00
3:51 PM,84.0,63.0,49,29.76,10.0,West,11.5,-,N/A,,Scattered Clouds,260,2013-09-10 22:51:00
4:51 PM,82.9,64.0,53,29.76,10.0,Variable,4.6,-,N/A,,Scattered Clouds,0,2013-09-10 23:51:00
5:51 PM,82.9,63.0,51,29.76,10.0,WSW,11.5,-,N/A,,Scattered Clouds,240,2013-09-11 00:51:00
6:51 PM,80.1,64.0,58,29.78,10.0,West,8.1,-,N/A,,Scattered Clouds,280,2013-09-11 01:51:00
7:51 PM,80.1,63.0,56,29.79,10.0,West,6.9,-,N/A,,Clear,270,2013-09-11 02:51:00
8:51 PM,79.0,64.0,60,29.82,10.0,WSW,5.8,-,N/A,,Partly Cloudy,250,2013-09-11 03:51:00
9:51 PM,78.1,66.0,66,29.83,10.0,WSW,4.6,-,N/A,,Partly Cloudy,240,2013-09-11 04:51:00
10:51 PM,77.0,64.9,66,29.84,10.0,WSW,4.6,-,N/A,,Scattered Clouds,250,2013-09-11 05:51:00
11:51 PM,77.0,64.9,66,29.83,10.0,WSW,4.6,-,N/A,,Scattered Clouds,240,2013-09-11 06:51:00